Вернуться в каталог

STARLINK-11118

АктивенСвязьVLEO
NORAD 59754·PAYLOAD·🇺🇸 United States

Запущен May 14, 2024 с Vandenberg Space Force Base

Loading…

Ближайшие Пролёты (ближайшие 24 часа)

TLE

СвежийSource: CelesTrak SupGP

Эпоха: Sep 15, 2026, 03:12 UTC

1 59754C 24091B   26258.13381944  .00005962  00000+0  49124-4 0  2585
2 59754  53.1570 352.7012 0001033  87.7597 256.8972 15.69699164    19

Отслеживайте STARLINK-11118 в реальном времени с AllMySat

Download on the App Store